Flag for Netherlands Weather past 2 weeks in Breda, Netherlands

Now
41 °F

Scattered clouds.


Feels Like: 36 °F
Forecast: 33 / 40 °F
Wind: 8 mph from North

Location: Gilze-Rijen

Current Time: Dec 29, 2014 at 1:31:54 PM

Latest Report: Dec 29, 2014 at 12:55 PM


Visibility: N/A

Pressure: 30.54 "Hg

Humidity: 76%

Dew point: 34 °F

Location of BredaLocation

Historic Weather in Breda — Graph

°F

Breda temperature yesterday

Maximum temperature yesterday: 30 °F (at 12:25 AM)
Minimum temperature yesterday: 18 °F (at 8:25 PM)
Average temperature yesterday: 25 °F

Past Weeks' High & Low Weather Summary

 TemperatureHumidityPressure
High55 °F (Dec 18, 1:55 PM)100% (Dec 14, 12:25 PM)30.54 "Hg (Dec 14, 12:25 PM)
Low18 °F (Dec 28, 8:25 PM)66% (Dec 19, 3:25 PM)29.30 "Hg (Dec 27, 8:55 AM)
Average43 °F90%30.02 "Hg
* Reported Dec 14 12:25 PM — Dec 29 12:25 PM, Breda, Weather by CustomWeather, © 2014

Note: Actual official high and low records may vary slightly from our data, if they occured in-between our weather recording intervals... More about our weather records

Advertising

Breda weather history for previous 24 hours

 ConditionsComfort  
Time TempWeatherWind HumidityBarometerVisibility
12:25 PM
Dec 29
41 °FPassing clouds.9 mph81%30.54 "HgN/A
11:55 AM41 °FPartly sunny.8 mph81%30.54 "HgN/A
11:25 AM37 °FBroken clouds.8 mph93%30.54 "HgN/A
10:55 AM37 °FScattered clouds.7 mph93%30.51 "HgN/A
10:25 AM36 °FScattered clouds.6 mph100%30.51 "HgN/A
9:55 AM36 °FCloudy.8 mph100%30.51 "HgN/A
9:25 AM34 °FScattered clouds.8 mph100%30.48 "HgN/A
8:55 AM36 °FPartly sunny.8 mph93%30.48 "HgN/A
8:25 AM37 °FPassing clouds.6 mph93%30.48 "HgN/A
7:55 AM36 °FPassing clouds.8 mph100%30.48 "HgN/A
7:25 AM37 °FFog.8 mph93%30.45 "Hg6 mi
6:55 AM36 °FLight rain. Passing clouds.8 mph100%30.45 "Hg3 mi
6:25 AM36 °FFog.6 mph93%30.45 "Hg4 mi
5:55 AM36 °FSprinkles. Passing clouds.6 mph93%30.45 "Hg2 mi
5:25 AM36 °FFog.10 mph93%30.45 "Hg6 mi
4:55 AM34 °FFog.8 mph93%30.48 "Hg6 mi
4:25 AM34 °FSprinkles. Mostly cloudy.6 mph93%30.48 "Hg3 mi
3:55 AM34 °FPartly cloudy.8 mph87%30.48 "HgN/A
3:25 AM34 °FPartly cloudy.9 mph87%30.48 "HgN/A
2:55 AM32 °FOvercast.8 mph87%30.48 "HgN/A
2:25 AM32 °FIce fog.6 mph87%30.51 "Hg6 mi
1:55 AM30 °FLight snow. Mostly cloudy.7 mph93%30.51 "Hg2 mi
1:25 AM30 °FOvercast.8 mph86%30.51 "HgN/A
12:55 AM30 °FMostly cloudy.7 mph86%30.51 "HgN/A
12:25 AM30 °FMostly cloudy.7 mph80%30.51 "HgN/A
11:55 PM
Dec 28
28 °FMostly cloudy.7 mph86%30.54 "HgN/A
11:25 PM27 °FOvercast.7 mph86%30.54 "HgN/A
10:55 PM27 °FIce fog.8 mph86%30.54 "Hg6 mi
10:25 PM25 °FIce fog.7 mph93%30.54 "Hg6 mi
9:55 PM25 °FIce fog.6 mph93%30.54 "Hg3 mi
9:25 PM21 °FIce fog.3 mph93%30.54 "Hg2 mi
8:55 PM21 °FIce fog.5 mph93%30.54 "Hg1 mi
8:25 PM18 °FIce fog.3 mph100%30.54 "Hg1 mi
7:55 PM19 °FIce fog.5 mph100%30.54 "Hg0 mi
7:25 PM19 °FIce fog.2 mph100%30.54 "Hg1 mi
6:55 PM21 °FIce fog.3 mph100%30.51 "Hg3 mi
6:25 PM21 °FIce fog.3 mph100%30.51 "Hg1 mi
5:59 PM23 °FIce fog.2 mph100%30.48 "Hg2 mi
5:55 PM23 °FIce fog.2 mph100%30.48 "Hg2 mi
5:25 PM27 °FIce fog.3 mph93%30.48 "Hg4 mi
4:55 PM23 °FIce fog.3 mph86%30.48 "Hg4 mi
4:25 PM27 °FChilly.2 mph86%30.45 "HgN/A
3:55 PM27 °FPassing clouds.2 mph80%30.45 "HgN/A
3:25 PM28 °FChilly.6 mph80%30.42 "HgN/A
2:55 PM28 °FChilly.6 mph80%30.42 "HgN/A
2:25 PM28 °FChilly.7 mph80%30.42 "HgN/A
1:55 PM28 °FChilly.6 mph80%30.39 "HgN/A
1:25 PM28 °FChilly.6 mph80%30.39 "HgN/A
Weather by CustomWeather, © 2014

See weather overviewHow to use our weather pages